Wind_Speed
8 9 9 8 7 7 7 7 6 6 6 6 6 5 5 5 5 5 5 5 6 5 5 5 5 5 5 4 4 5 4 4 4 4 5 5 4 4 4 4 4 3 3
8 9 9 9 9 9 8 8 8 7 7 7 7 7 6 6 6 6 6 6 6 6 6 6 5 5 5 5 4 4 4 4 4 4 4 4 3 3 3 4 4 4 4
9 9 10 9 9 10 10 9 9 9 8 8 8 8 8 7 7 6 7 7 6 7 7 6 6 6 6 6 6 5 5 5 5 4 4 4 4 4 4 4 5 5 5
9 10 10 9 10 10 10 10 10 10 10 9 9 9 9 9 8 7 7 8 7 8 8 7 7 7 7 7 7 6 6 6 6 5 5 5 5 5 6 5 5 6 6
8 9 9 10 10 10 11 11 11 11 11 11 10 10 9 9 9 9 8 9 9 9 9 9 9 9 8 8 8 7 7 7 7 6 7 7 7 6 7 7 7 7 7
8 9 9 9 10 11 11 12 13 13 13 12 11 11 11 10 10 10 9 9 10 10 10 10 9 9 9 8 8 7 8 7 8 8 9 8 8 8 8 8 8 7 8
7 8 9 9 9 9 11 11 13 14 13 13 12 12 12 11 12 11 10 10 10 10 11 11 10 10 9 9 9 8 8 8 8 9 10 10 10 10 10 9 9 9 9
5 6 7 8 8 9 9 10 12 13 13 13 13 13 13 12 12 11 11 11 11 10 10 10 11 11 11 10 9 9 9 9 9 10 11 11 11 11 11 11 11 11 11
5 5 6 7 8 8 8 8 9 11 12 12 12 13 13 13 12 12 11 11 11 11 11 11 11 12 12 11 10 10 10 10 10 11 11 12 12 12 12 12 12 12 12
4 4 5 6 6 7 7 7 7 8 9 10 11 11 12 13 13 13 13 12 12 12 12 12 12 12 12 12 11 11 10 11 11 11 11 12 12 13 13 12 12 13 13
4 4 4 5 6 6 7 7 8 8 9 9 10 10 11 12 12 13 13 13 12 12 12 13 13 13 13 13 12 12 12 11 11 11 11 11 11 12 13 13 14 14 14
4 5 5 5 5 6 6 6 7 8 9 9 10 10 10 11 11 12 12 12 12 13 13 13 13 14 14 14 14 13 13 13 12 12 12 12 11 12 12 13 13 14 14
5 5 4 4 4 5 5 6 6 7 8 9 9 10 10 11 11 11 12 12 12 12 13 13 13 14 14 15 15 14 14 14 13 13 13 12 12 12 12 13 13 13 14
4 5 4 4 4 4 5 5 5 6 7 8 9 10 10 10 11 11 11 11 11 11 12 13 14 13 14 14 14 15 15 14 14 14 13 13 13 13 13 12 13 12 12
4 4 4 5 5 5 5 5 5 6 7 8 8 9 10 10 10 11 11 10 11 11 11 11 13 13 14 14 14 14 14 15 14 14 14 14 13 13 14 13 13 12 12
4 4 5 5 5 6 6 6 6 7 7 7 8 9 9 10 10 11 10 10 10 11 11 11 11 12 13 13 14 14 14 14 14 14 15 15 14 14 14 13 13 13 13
5 5 6 6 6 6 6 6 7 7 7 8 8 9 9 9 10 11 11 10 10 11 11 10 10 11 12 13 13 13 13 14 14 14 14 14 14 14 14 13 13 13 14
5 5 6 6 6 6 7 7 7 7 8 8 8 9 9 9 10 10 10 10 10 10 10 10 10 11 11 12 12 13 13 13 13 13 14 14 14 14 14 14 14 14 14
5 5 6 6 6 6 7 7 7 8 8 9 9 9 9 10 10 10 11 11 10 10 10 10 10 11 11 12 12 12 13 13 13 13 13 14 14 14 14 14 14 15 15
6 5 5 6 7 7 6 6 7 7 8 8 9 9 9 9 10 10 11 11 11 11 10 10 10 10 11 11 12 12 13 13 13 14 14 13 14 14 14 14 14 14 14
7 6 6 7 7 7 7 7 7 8 8 8 8 9 9 9 9 10 10 11 11 11 11 11 11 11 11 11 11 12 13 13 13 14 14 14 14 14 14 15 15 15 15
8 8 7 7 7 7 8 8 8 8 8 9 9 9 9 10 10 10 10 10 11 11 11 11 11 11 11 11 12 12 13 13 13 14 14 14 14 14 15 15 15 15 16
10 10 9 9 9 9 9 10 10 10 10 10 10 10 10 11 11 11 11 11 11 11 12 12 12 12 12 12 12 13 14 14 14 13 14 14 14 14 15 15 16 16 16
11 11 11 11 11 11 11 11 11 12 11 11 12 12 12 12 12 13 12 12 12 13 13 13 12 12 12 12 13 13 14 14 14 14 15 15 15 15 15 16 16 16 16
12 13 13 13 13 13 13 13 13 13 13 13 13 13 14 13 13 14 14 14 14 14 14 13 13 13 13 13 14 14 14 15 15 15 15 16 16 16 16 16 17 17 17
14 14 14 15 15 15 15 14 14 14 14 14 14 14 15 15 15 15 14 15 15 15 15 15 15 14 14 15 15 15 15 15 15 16 16 16 17 17 17 17 17 18 18
Wind_Direction
211 210 206 206 205 204 206 204 206 208 206 203 200 201 199 194 188 180 174 171 174 175 171 164 159 165 157 154 156 159 154 153 162 160 151 147 145 149 158 163 171 177 187
216 216 214 215 216 215 215 217 216 214 213 214 211 210 213 215 211 201 197 191 191 194 190 187 182 184 180 182 184 183 183 178 177 178 171 170 171 178 184 191 196 196 201
221 219 216 217 222 222 221 221 221 225 223 220 218 216 220 222 222 218 215 212 209 206 207 206 204 200 199 204 208 209 210 201 198 202 194 195 201 206 209 212 215 217 220
222 221 222 224 227 228 226 227 226 228 228 225 224 222 224 226 228 228 227 224 226 218 214 217 219 218 214 217 224 226 227 218 217 213 212 217 224 229 228 224 225 231 235
224 223 226 229 231 232 233 233 230 228 230 229 228 227 228 229 230 230 229 227 228 227 227 227 227 228 225 229 235 234 232 227 224 228 228 232 237 239 239 234 232 237 241
228 230 232 233 236 237 238 236 233 231 231 231 230 230 230 229 230 231 232 230 229 229 228 230 230 230 230 233 238 238 236 235 237 237 237 240 243 244 245 243 241 246 247
233 235 240 244 241 241 241 241 235 231 230 232 231 231 231 232 233 233 231 231 231 233 232 232 233 233 231 234 235 236 237 241 240 240 240 244 247 248 247 248 250 254 257
241 242 243 245 241 243 243 240 235 232 229 232 233 232 234 234 233 231 229 230 232 234 235 236 236 235 235 237 236 237 242 245 244 244 244 247 248 248 250 249 253 257 258
247 244 246 242 241 243 240 236 233 227 228 231 233 233 233 233 232 231 230 231 233 236 235 235 236 236 238 240 240 241 244 246 246 245 247 248 248 249 252 253 254 257 260
250 249 246 239 239 236 234 236 231 227 228 228 230 233 231 230 230 230 231 234 236 238 238 240 238 238 238 240 240 241 243 244 245 249 249 248 249 250 252 254 256 258 260
252 251 249 245 243 237 238 236 232 229 229 230 231 234 232 232 233 233 234 236 240 241 243 243 241 239 237 238 240 240 241 246 251 253 254 255 255 253 254 256 257 258 261
255 258 259 252 242 235 232 231 232 232 232 231 233 237 237 238 237 238 240 239 242 245 245 244 243 241 241 240 241 243 245 247 251 255 257 258 258 256 258 261 262 261 262
255 257 259 252 240 232 229 229 232 233 232 232 235 236 238 240 242 241 241 242 246 247 248 246 244 243 242 242 243 244 245 247 250 252 255 258 258 257 258 261 263 263 261
250 250 251 250 244 237 233 233 236 236 234 235 237 238 239 242 245 245 246 247 247 248 246 246 244 244 242 242 245 245 244 247 249 250 253 254 255 258 258 260 262 264 264
250 246 245 245 244 242 239 239 245 244 242 242 243 243 244 244 244 244 245 246 247 248 250 244 243 242 242 243 247 246 245 246 249 252 254 256 257 259 260 261 262 266 267
252 251 250 246 245 245 248 252 254 254 251 248 246 247 246 246 246 244 243 244 248 250 252 253 250 245 242 244 246 245 246 248 250 252 255 257 259 261 260 259 261 263 265
260 257 253 250 250 250 252 256 258 257 256 254 252 251 250 249 249 249 246 246 249 249 249 248 248 248 246 245 248 248 247 249 252 253 256 257 258 260 261 260 260 262 264
268 262 255 254 254 255 258 260 261 260 261 259 255 254 252 250 249 249 249 250 249 249 249 249 249 252 249 247 250 249 249 252 255 257 260 260 259 261 262 260 259 260 262
266 260 255 255 256 259 263 264 264 264 265 262 258 258 257 253 251 250 250 250 248 249 251 250 251 251 249 249 250 249 250 254 257 259 262 264 263 262 262 261 260 261 262
263 258 259 260 259 261 264 264 266 268 265 262 259 257 256 253 252 252 252 252 251 251 251 251 250 253 255 253 253 251 253 254 257 259 261 263 261 260 261 262 261 264 265
263 262 266 267 264 263 267 267 267 269 266 262 261 259 257 255 254 254 254 253 252 252 252 254 254 254 255 255 256 256 258 258 259 261 262 262 262 262 263 264 263 263 265
264 264 265 268 267 267 270 272 270 269 269 267 265 267 262 259 258 255 255 254 252 251 252 253 254 255 255 257 259 259 261 261 262 265 264 262 262 263 264 266 266 266 266
266 264 263 266 268 269 270 271 270 269 267 267 267 266 262 260 260 258 256 255 254 254 253 254 257 257 257 259 261 263 264 264 265 263 263 263 263 263 263 266 267 266 266
266 265 263 265 268 271 272 272 271 270 269 267 267 265 264 262 261 260 259 258 257 257 256 256 259 258 260 262 261 264 265 264 264 265 263 263 262 263 263 265 269 271 270
267 266 265 266 267 269 272 273 271 271 270 269 268 266 266 265 264 261 259 259 259 259 258 258 259 259 261 262 263 265 266 265 265 264 265 267 267 266 266 268 272 272 272
268 266 267 268 269 271 273 274 273 271 270 269 268 268 267 266 264 261 259 258 257 258 259 259 259 260 260 263 264 265 266 265 266 266 268 269 270 269 270 272 273 275 275
Height
5873 5873 5874 5874 5875 5876 5876 5877 5877 5878 5878 5879 5879 5880 5880 5880 5880 5880 5881 5881 5881 5882 5882 5882 5882 5883 5883 5884 5884 5884 5884 5884 5884 5885 5885 5886 5886 5887 5887 5887 5888 5888 5888
5872 5872 5873 5874 5874 5875 5875 5876 5876 5877 5878 5878 5879 5879 5879 5880 5880 5880 5880 5881 5881 5882 5882 5882 5883 5883 5883 5884 5884 5884 5885 5885 5884 5885 5885 5886 5886 5887 5887 5887 5888 5888 5888
5870 5871 5872 5872 5873 5873 5874 5874 5875 5876 5876 5877 5878 5878 5878 5879 5879 5879 5879 5880 5880 5881 5882 5882 5883 5883 5883 5884 5884 5884 5884 5885 5885 5885 5886 5886 5886 5887 5887 5887 5887 5887 5888
5869 5870 5870 5871 5871 5872 5872 5873 5873 5874 5875 5876 5876 5877 5877 5878 5878 5879 5879 5879 5880 5880 5881 5882 5882 5883 5883 5883 5884 5884 5884 5884 5885 5885 5885 5886 5886 5886 5887 5887 5887 5887 5887
5868 5868 5869 5869 5870 5870 5870 5871 5871 5872 5873 5874 5875 5875 5876 5876 5877 5878 5878 5879 5879 5879 5880 5881 5881 5882 5882 5882 5883 5883 5883 5884 5884 5884 5885 5885 5885 5885 5886 5886 5886 5886 5886
5866 5867 5867 5868 5868 5868 5868 5868 5868 5869 5871 5872 5873 5874 5875 5875 5876 5876 5877 5877 5878 5878 5879 5880 5880 5881 5881 5881 5882 5882 5882 5883 5883 5883 5884 5884 5884 5884 5885 5885 5885 5885 5885
5865 5865 5865 5866 5866 5866 5864 5864 5864 5866 5868 5870 5871 5872 5873 5873 5874 5875 5875 5876 5876 5877 5878 5878 5879 5879 5880 5880 5880 5881 5881 5881 5882 5882 5882 5883 5883 5883 5883 5884 5884 5884 5884
5863 5864 5864 5864 5864 5864 5863 5861 5861 5863 5866 5868 5869 5870 5871 5872 5872 5873 5874 5875 5875 5876 5876 5877 5877 5878 5878 5879 5879 5879 5880 5880 5880 5880 5881 5881 5881 5882 5882 5882 5882 5882 5882
5862 5862 5862 5863 5863 5863 5862 5862 5862 5863 5865 5867 5868 5869 5869 5870 5871 5872 5872 5873 5873 5874 5874 5875 5876 5876 5877 5877 5877 5878 5878 5878 5878 5878 5879 5879 5879 5880 5880 5880 5880 5880 5880
5861 5861 5861 5862 5862 5862 5862 5862 5862 5863 5864 5865 5866 5867 5867 5868 5869 5870 5870 5871 5871 5872 5872 5873 5874 5874 5875 5875 5876 5876 5876 5876 5877 5877 5877 5877 5877 5878 5878 5878 5878 5878 5878
5861 5861 5861 5861 5861 5861 5861 5861 5862 5862 5863 5864 5864 5865 5865 5866 5866 5867 5868 5869 5869 5870 5870 5871 5872 5872 5873 5873 5874 5874 5874 5874 5875 5875 5875 5875 5875 5875 5876 5876 5876 5876 5876
5860 5860 5860 5860 5860 5860 5860 5860 5861 5861 5862 5862 5863 5863 5863 5864 5865 5865 5866 5866 5867 5868 5868 5868 5869 5870 5870 5871 5871 5872 5872 5872 5873 5873 5873 5873 5873 5873 5873 5873 5873 5873 5873
5859 5859 5859 5859 5859 5859 5859 5859 5859 5860 5860 5861 5861 5861 5862 5862 5863 5863 5864 5864 5865 5865 5865 5866 5866 5867 5868 5868 5869 5869 5870 5870 5871 5871 5871 5871 5871 5871 5871 5871 5871 5870 5871
5859 5858 5858 5858 5858 5858 5858 5858 5858 5859 5859 5859 5860 5860 5860 5861 5861 5861 5862 5862 5863 5863 5863 5863 5864 5864 5865 5866 5866 5867 5867 5868 5868 5868 5869 5869 5869 5868 5868 5868 5868 5868 5868
5858 5858 5858 5857 5857 5857 5857 5858 5858 5858 5858 5858 5858 5858 5859 5859 5859 5860 5860 5860 5861 5861 5861 5861 5861 5862 5863 5863 5864 5864 5865 5865 5865 5866 5866 5866 5866 5866 5866 5866 5865 5866 5866
5857 5857 5857 5857 5856 5856 5856 5856 5856 5856 5856 5856 5856 5857 5857 5857 5857 5858 5858 5858 5858 5858 5858 5859 5859 5859 5860 5861 5861 5861 5862 5862 5862 5863 5863 5863 5863 5863 5863 5863 5863 5863 5863
5855 5855 5856 5855 5855 5855 5855 5855 5855 5855 5855 5855 5855 5855 5855 5855 5855 5856 5856 5856 5856 5856 5856 5857 5857 5857 5858 5858 5858 5859 5859 5859 5860 5860 5860 5860 5860 5860 5860 5860 5860 5860 5860
5854 5854 5854 5854 5854 5854 5854 5854 5853 5853 5853 5853 5853 5853 5853 5853 5853 5854 5854 5854 5854 5854 5854 5854 5855 5855 5855 5855 5856 5856 5856 5857 5857 5857 5857 5857 5857 5857 5857 5857 5857 5857 5857
5853 5853 5853 5853 5853 5852 5852 5852 5852 5851 5851 5851 5851 5851 5851 5851 5851 5851 5852 5852 5852 5852 5852 5852 5852 5853 5853 5853 5853 5854 5854 5854 5854 5854 5854 5854 5854 5854 5854 5854 5854 5854 5854
5851 5851 5851 5851 5851 5850 5850 5850 5850 5850 5849 5849 5849 5849 5849 5849 5849 5849 5849 5849 5849 5850 5850 5850 5850 5850 5850 5851 5851 5851 5851 5851 5852 5852 5852 5851 5851 5851 5851 5851 5851 5851 5850
5850 5849 5849 5849 5849 5849 5848 5848 5848 5848 5847 5847 5847 5847 5847 5847 5847 5847 5847 5847 5847 5847 5848 5848 5848 5848 5848 5848 5849 5849 5849 5849 5849 5849 5848 5848 5848 5848 5848 5848 5847 5847 5847
5848 5848 5848 5847 5847 5847 5847 5846 5846 5846 5845 5845 5845 5845 5844 5844 5844 5844 5844 5845 5845 5845 5845 5845 5846 5846 5846 5846 5846 5846 5846 5847 5846 5846 5845 5845 5845 5845 5844 5844 5844 5844 5844
5846 5846 5845 5845 5845 5845 5845 5844 5844 5843 5843 5843 5843 5842 5842 5842 5842 5842 5842 5842 5842 5842 5843 5843 5843 5843 5843 5843 5843 5844 5843 5843 5843 5843 5842 5842 5842 5841 5841 5841 5841 5840 5840
5843 5843 5843 5843 5843 5842 5842 5842 5841 5841 5840 5840 5840 5839 5839 5839 5839 5839 5839 5839 5839 5839 5839 5840 5840 5840 5840 5840 5840 5840 5840 5840 5840 5840 5839 5839 5838 5838 5838 5837 5837 5836 5836
5840 5840 5840 5840 5840 5840 5839 5839 5838 5838 5837 5837 5837 5836 5836 5836 5836 5836 5836 5836 5836 5836 5836 5836 5836 5837 5837 5837 5837 5837 5837 5836 5836 5836 5836 5835 5835 5834 5834 5834 5833 5833 5832
5837 5837 5837 5837 5836 5836 5836 5835 5835 5835 5834 5834 5833 5833 5833 5832 5832 5832 5832 5832 5832 5832 5832 5833 5833 5833 5833 5833 5833 5833 5833 5833 5833 5832 5832 5831 5831 5830 5830 5829 5829 5828 5828